Location: Fernhill
(41.0167°S, 175.6333°E)
Time: 23:05:03
(UTC+00:00)

BREEZE-M R/B - Pass Details

Date: 08 November 2025
Orbit: 306 x 3903 km, 49.7° (Epoch: 04 December)

Event Time Altitude Azimuth Distance (km) Brightness Sun altitude
Rises 08:08:23 0° 238° (WSW) 2,589 8.5 -11.1°
Reaches altitude 10° 08:10:02 10° 237° (WSW) 1,906 7.2 -11.4°
Maximum altitude 08:14:14 84° 149° (SSE) 864 3.8 -12.0°
Enters shadow 08:20:46 16° 59° (ENE) 2,996 5.9 -13.0°
